STARLINK-4693 (53605 NORAD) Tracking and Keplerian Element Data

This shows tracking and keplerian element data for the satellite.

Feedback or suggestion? Click here.




ElementValue
Catalog53605
NameSTARLINK-4693
Epoch Orbit130
Epoch Day324.91667824
Epoch Year2022
RAAN252.3342
Inclination53.2189
Eccentricity0.0001614
Argument of Perigee52.7072
Mean Anonmoly111.9089
Mean Motion15.08843607
Decay Rate-0.00012076
L11 53605U 22104T 22324.91667824 -.00012076 00000+0 -74184-3 0 9998
L22 53605 53.2189 252.3342 0001614 52.7072 111.9089 15.08843607 1300



Live tracking and technical data element details for STARLINK-4693 (NORAD 53605). STARLINK-4693 can be tracked NOW for your location showing map with azimuth and elevation plus other details from your city location.







IsCatalogInMostPopularTable: catalog: 53605, numindb: 2
Update: records affected: 1



GetName: 53605 STARLINK-4693

Hit Count: updated at: Thu, 08 Dec 2022 09:02:08 GMT